[[{"header":{"parameterUnit":"m.s-1","parameterCategory":1,"la1":30.2991,"la2":30.254,"lo1":-89.0895,"lo2":-89.0444,"dy":0.0017,"dx":0.0017,"nx":28,"ny":28,"refTime":"2025-04-05T21:00:00:Z","depth":0,"parameterNumber":2,"parameterNumberName":"U-component_of_WINDS"},"data":[0,0,0,0,0,0,0,0,0,0,0,0,0,0,0,0,0,0,0,0,0,0,0,0,0,0,0,0,0,0,0,0,0,0,0,0,0,0,0,0,0,0,0,0,0,0,0,0,0,0,0,0,0,0,0,0,0,0,3.6417,3.6418,0,3.6531,3.6532,3.6534,3.6546,3.6545,3.6544,3.6542,3.6659,3.6663,3.6668,0,0,0,0,0,0,0,0,0,0,0,0,0,3.621,3.6213,3.6416,3.6418,3.6419,3.6531,3.6533,3.6534,3.6546,3.6545,3.6543,3.6542,3.6658,3.6663,3.6668,0,0,0,0,0,0,0,0,0,0,0,0,0,3.6309,3.6215,3.6416,3.6439,3.6442,3.6531,3.6533,3.6535,3.6546,3.6545,3.6543,3.6541,3.6656,3.6662,3.6669,3.6743,0,0,3.6688,3.6691,0,0,0,0,0,0,0,0,3.6304,3.6317,3.6434,3.6437,3.6441,3.6522,3.6503,3.6604,3.6547,3.6507,3.6542,3.654,3.6615,3.6625,3.665,3.6748,3.6753,3.6688,3.6692,3.6695,3.6697,0,0,0,0,0,0,0,3.6297,3.6312,3.6462,3.6436,3.644,3.6444,3.6456,3.6522,3.6569,3.651,3.6511,3.6525,3.6617,3.6644,3.6653,3.6755,3.6688,3.6694,3.6698,3.67,3.6921,3.6923,0,0,0,0,0,0,3.6286,3.6306,3.6458,3.6465,3.6367,3.6449,3.6463,3.6498,3.6569,3.6578,3.6526,3.6525,3.6634,3.6646,3.6657,3.6749,3.6695,3.6701,3.6704,3.6919,3.6922,3.6924,0,0,0,0,0,0,3.6281,3.6299,3.6454,3.6386,3.6406,3.6454,3.6494,3.6501,3.6528,3.6581,3.6589,3.6545,3.6633,3.6648,3.6722,3.6753,3.6704,3.6709,3.6917,3.692,3.6923,3.6932,0,0,0,0,0,0,3.6275,3.6297,3.6325,3.6387,3.641,3.6516,3.6496,3.6505,3.6539,3.6539,3.6601,3.6609,3.6633,3.6712,3.6728,3.6761,3.6714,3.6914,3.6918,3.6922,3.693,3.6936,3.6941,0,0,0,0,0,3.6268,3.6323,3.6327,3.6345,3.6446,3.6517,3.6531,3.6557,3.6542,3.6571,3.6605,3.6607,3.6748,3.672,3.6737,3.6773,3.6912,3.6917,3.6922,3.6927,3.6934,3.6941,0,0,0,0,0,0,3.6263,3.6331,3.6336,3.6413,3.6459,3.6519,3.6556,3.6563,3.6615,3.6612,3.6643,3.6657,3.6729,3.6759,3.6726,3.6849,3.6828,3.6837,3.6826,3.6834,3.6839,3.683,3.672,0,0,0,0,0,3.6271,3.6324,3.6381,3.6443,3.6466,3.6507,3.654,3.6556,3.6605,3.6625,3.6664,3.6712,3.6767,3.6803,3.6856,3.6935,3.6949,3.6968,3.6974,3.6978,3.6984,3.7029,3.7039,3.6939,3.6939,3.6939,0,0,3.6288,3.6332,3.6363,3.6443,3.6481,3.6535,3.6524,3.6581,3.6621,3.6634,3.6705,3.6736,3.6792,3.6869,3.6904,3.6895,3.7016,3.6984,3.6987,3.6991,3.7035,3.7045,3.7053,3.6943,3.6942,3.6942,0,0,3.6346,3.6384,3.6441,3.648,3.6538,3.6565,3.6579,3.6639,3.666,3.6733,3.6744,3.6793,3.6887,3.6926,3.6959,3.7035,3.704,3.7052,3.708,3.7124,3.7132,3.7139,3.7166,3.7175,3.7059,3.7059,3.7059,0,3.6359,3.644,3.6469,3.6526,3.6562,3.6577,3.6635,3.6671,3.6744,3.6768,3.6758,3.6877,3.6915,3.7002,3.7021,3.7047,3.7064,3.7044,3.7128,3.7136,3.7143,3.7169,3.7179,3.706,3.706,3.706,3.7059,0,3.6454,3.6511,3.655,3.662,3.666,3.6718,3.6755,3.6793,3.6807,3.6836,3.6911,3.6958,3.7022,3.7044,3.7058,3.7134,3.7126,3.7122,3.7101,3.7153,3.7178,3.7188,3.7061,3.7061,3.7061,3.706,0,0,3.6509,3.6597,3.661,3.6643,3.671,3.6754,3.6814,3.6877,3.6908,3.6959,3.7009,3.709,3.7087,3.7124,3.7143,3.7181,3.7239,3.7172,3.7174,3.7182,3.7326,3.7328,3.7339,3.7244,3.7246,3.7247,3.7321,0,3.6574,3.6679,3.6708,3.6797,3.685,3.6867,3.6918,3.6965,3.6995,3.7045,3.7078,3.7135,3.7126,3.7149,3.7188,3.7223,3.7268,3.7219,3.729,3.7293,3.7274,3.7352,3.7354,3.742,3.7331,3.7333,3.7334,0,3.6663,3.6716,3.681,3.6872,3.6895,3.6941,3.7002,3.705,3.7104,3.7123,3.7166,3.7182,3.7245,3.7224,3.7311,3.7277,3.7309,3.7331,3.7335,3.7341,3.7315,3.7359,3.7442,3.7452,3.735,3.7348,3.7347,0,3.6693,3.6788,3.6857,3.6885,3.6959,3.699,3.7023,3.7076,3.7112,3.7166,3.7191,3.7251,3.7284,3.7331,3.7363,3.7345,3.7449,3.7429,3.7466,3.7465,3.7485,3.7483,3.7574,3.7508,3.7508,3.7508,3.7508,0,3.6761,3.6818,3.6872,3.6914,3.6979,3.7013,3.7076,3.7109,3.7157,3.7206,3.7225,3.7272,3.7312,3.7365,3.7391,3.746,3.7475,3.7492,3.7498,3.7489,3.7487,3.7509,3.7505,3.7511,3.751,3.751,3.7509,0,3.6805,3.6843,3.6919,3.6984,3.7001,3.7046,3.7102,3.7144,3.7175,3.7238,3.7255,3.7304,3.7367,3.7405,3.7484,3.7502,3.7578,3.7582,3.7559,3.7561,3.7596,3.7591,3.7702,3.7718,3.7643,3.7644,3.7644,0,3.6845,3.6889,3.6959,3.6994,3.7026,3.7082,3.712,3.7156,3.7195,3.7262,3.7296,3.736,3.7413,3.7513,3.7556,3.7617,3.7623,3.7657,3.7632,3.7622,3.7622,3.7619,3.7623,3.7661,3.7661,3.7662,3.7662,0,3.6912,3.6929,3.6983,3.7045,3.709,3.714,3.7189,3.7217,3.7262,3.7305,3.7369,3.741,3.7492,3.7556,3.7621,3.7655,3.7666,3.7671,3.7682,3.7673,3.7657,3.7666,3.7569,3.7667,3.7667,3.7666,3.7666,3.7666,3.6955,3.6995,3.7051,3.7111,3.7152,3.7199,3.7242,3.728,3.7335,3.7404,3.7422,3.749,3.7546,3.7635,3.7671,3.7725,3.7719,3.7736,3.774,3.7744,3.7744,3.765,3.7737,3.7737,3.7737,3.7737,3.7737,0,3.7022,3.7059,3.7114,3.7184,3.7231,3.7239,3.7296,3.7335,3.7394,3.7446,3.7498,3.7573,3.7635,3.7685,3.7749,3.7783,3.779,3.7798,3.7795,3.7803,3.7745,3.7728,3.7792,3.7792,3.7792,3.7792,3.7792,3.7792,3.7062,3.7132,3.7156,3.7247,3.7284,3.7351,3.7382,3.7426,3.7467,3.755,3.7602,3.7634,3.7685,3.7754,3.7812,3.7825,3.7847,3.7855,3.7869,3.7813,3.7807,3.7801,3.7786,3.786,3.786,3.7922,3.7923,3.7923]},{"header":{"parameterUnit":"m.s-1","parameterCategory":1,"la1":30.2991,"la2":30.254,"lo1":-89.0895,"lo2":-89.0444,"dy":0.0017,"dx":0.0017,"nx":28,"ny":28,"refTime":"2025-04-05T21:00:00:Z","depth":0,"parameterNumber":3,"parameterNumberName":"V-component_of_WINDS"},"data":[0,0,0,0,0,0,0,0,0,0,0,0,0,0,0,0,0,0,0,0,0,0,0,0,0,0,0,0,0,0,0,0,0,0,0,0,0,0,0,0,0,0,0,0,0,0,0,0,0,0,0,0,0,0,0,0,0,0,-5.2137,-5.2137,0,-5.2168,-5.2168,-5.2168,-5.2077,-5.2074,-5.2072,-5.2069,-5.21,-5.2103,-5.2106,0,0,0,0,0,0,0,0,0,0,0,0,0,-5.1999,-5.2002,-5.2137,-5.2137,-5.2138,-5.2168,-5.2168,-5.2168,-5.2078,-5.2074,-5.2071,-5.2068,-5.2099,-5.2103,-5.2107,0,0,0,0,0,0,0,0,0,0,0,0,0,-5.2048,-5.2003,-5.2137,-5.2096,-5.2093,-5.2168,-5.2168,-5.2169,-5.2078,-5.2074,-5.207,-5.2066,-5.2097,-5.2102,-5.2107,-5.2223,0,0,-5.2123,-5.2125,0,0,0,0,0,0,0,0,-5.2045,-5.2053,-5.2102,-5.2099,-5.2095,-5.2114,-5.2131,-5.2187,-5.2079,-5.2084,-5.2069,-5.2064,-5.2108,-5.2112,-5.2127,-5.2224,-5.2226,-5.2123,-5.2127,-5.2129,-5.213,0,0,0,0,0,0,0,-5.2042,-5.2051,-5.2149,-5.2103,-5.2099,-5.2076,-5.2078,-5.2141,-5.2119,-5.2083,-5.2077,-5.2082,-5.2105,-5.2122,-5.2127,-5.2226,-5.2123,-5.2128,-5.2131,-5.2133,-5.242,-5.2424,0,0,0,0,0,0,-5.2044,-5.2049,-5.2148,-5.215,-5.2059,-5.2082,-5.2084,-5.2113,-5.2118,-5.2115,-5.2085,-5.2077,-5.2115,-5.2121,-5.2128,-5.2263,-5.2129,-5.2134,-5.2137,-5.2416,-5.2421,-5.2426,0,0,0,0,0,0,-5.2041,-5.2054,-5.2147,-5.2098,-5.2108,-5.2089,-5.2121,-5.2115,-5.2132,-5.212,-5.2115,-5.2106,-5.2112,-5.212,-5.22,-5.2263,-5.2136,-5.2141,-5.241,-5.2417,-5.2424,-5.2536,0,0,0,0,0,0,-5.2038,-5.2053,-5.2097,-5.2099,-5.2111,-5.2219,-5.2125,-5.2119,-5.2141,-5.2131,-5.2138,-5.2135,-5.211,-5.2193,-5.2205,-5.2268,-5.2145,-5.2404,-5.2413,-5.2421,-5.2527,-5.2546,-5.2562,0,0,0,0,0,-5.2033,-5.2127,-5.21,-5.2112,-5.2165,-5.2223,-5.2229,-5.2198,-5.2147,-5.219,-5.2183,-5.2135,-5.2255,-5.2202,-5.2215,-5.228,-5.24,-5.2411,-5.2421,-5.2519,-5.2542,-5.2562,0,0,0,0,0,0,-5.2132,-5.2127,-5.2096,-5.2194,-5.221,-5.2207,-5.2262,-5.2224,-5.2255,-5.2244,-5.2204,-5.2206,-5.2293,-5.2294,-5.2236,-5.2392,-5.2318,-5.2332,-5.2388,-5.2411,-5.2428,-5.2426,-5.2149,0,0,0,0,0,-5.2165,-5.2213,-5.2205,-5.2292,-5.2302,-5.2281,-5.2305,-5.228,-5.2294,-5.23,-5.2298,-5.2314,-5.2355,-5.2383,-5.242,-5.2527,-5.2527,-5.2578,-5.2596,-5.2611,-5.2623,-5.2679,-5.2702,-5.246,-5.246,-5.2459,0,0,-5.2234,-5.2237,-5.227,-5.2312,-5.2322,-5.2372,-5.2287,-5.2343,-5.238,-5.2309,-5.2384,-5.2383,-5.2398,-5.2492,-5.2533,-5.2496,-5.269,-5.2624,-5.2636,-5.2639,-5.2692,-5.2715,-5.2736,-5.2467,-5.2465,-5.2464,0,0,-5.2386,-5.2393,-5.2466,-5.2477,-5.2493,-5.2478,-5.2496,-5.25,-5.2497,-5.2572,-5.2519,-5.2563,-5.2634,-5.2647,-5.2663,-5.2821,-5.2779,-5.2834,-5.2927,-5.2983,-5.3003,-5.3019,-5.3076,-5.3097,-5.2846,-5.2846,-5.2847,0,-5.2469,-5.2543,-5.2508,-5.2569,-5.2589,-5.2528,-5.2602,-5.2614,-5.2641,-5.2657,-5.2614,-5.2703,-5.2709,-5.2805,-5.2844,-5.2859,-5.2878,-5.2833,-5.3003,-5.3019,-5.3034,-5.3088,-5.3109,-5.2853,-5.2852,-5.2852,-5.2851,0,-5.2646,-5.2698,-5.2755,-5.2783,-5.281,-5.2877,-5.2852,-5.2884,-5.2857,-5.2847,-5.2924,-5.2929,-5.2966,-5.2987,-5.2961,-5.308,-5.3056,-5.3009,-5.2934,-5.3065,-5.3114,-5.3134,-5.2863,-5.286,-5.2858,-5.2856,0,0,-5.286,-5.2868,-5.289,-5.2902,-5.2915,-5.2955,-5.3019,-5.3056,-5.3084,-5.3104,-5.3158,-5.322,-5.3177,-5.3195,-5.317,-5.3219,-5.3344,-5.3165,-5.3165,-5.3199,-5.3476,-5.3512,-5.3536,-5.3316,-5.332,-5.3323,-5.3475,0,-5.3009,-5.312,-5.3091,-5.3201,-5.3249,-5.3191,-5.3247,-5.3261,-5.3254,-5.3293,-5.3285,-5.333,-5.3269,-5.328,-5.3326,-5.3319,-5.3399,-5.3308,-5.3365,-5.3368,-5.3363,-5.3562,-5.3599,-5.3743,-5.3494,-5.3497,-5.35,0,-5.3198,-5.3227,-5.3342,-5.3348,-5.3367,-5.3418,-5.3449,-5.3488,-5.3503,-5.3494,-5.3515,-5.348,-5.3544,-5.3469,-5.3556,-5.3494,-5.3516,-5.3516,-5.3521,-5.3525,-5.3442,-5.3572,-5.3788,-5.381,-5.353,-5.3527,-5.3525,0,-5.3343,-5.341,-5.3488,-5.35,-5.3509,-5.3546,-5.3551,-5.3562,-5.3587,-5.3614,-5.363,-5.3665,-5.3684,-5.3711,-5.3687,-5.3634,-5.3778,-5.3701,-5.3773,-5.3774,-5.3806,-5.3804,-5.4029,-5.382,-5.382,-5.3819,-5.3819,0,-5.3513,-5.3585,-5.3553,-5.3601,-5.3681,-5.3648,-5.3728,-5.3726,-5.3737,-5.3783,-5.3735,-5.378,-5.3745,-5.3787,-5.3768,-5.3843,-5.3852,-5.3847,-5.3841,-5.3851,-5.3852,-5.3865,-5.3854,-5.3825,-5.3824,-5.3822,-5.3821,0,-5.3688,-5.3669,-5.375,-5.3752,-5.3754,-5.3814,-5.3815,-5.3859,-5.3849,-5.3908,-5.392,-5.3904,-5.3951,-5.3929,-5.3978,-5.3965,-5.4062,-5.4043,-5.4058,-5.4053,-5.4126,-5.412,-5.4367,-5.4398,-5.4169,-5.4171,-5.4173,0,-5.3798,-5.3852,-5.386,-5.3889,-5.3897,-5.3943,-5.3968,-5.3937,-5.3964,-5.3986,-5.4028,-5.4071,-5.4103,-5.4181,-5.4173,-5.421,-5.4192,-5.4276,-5.4197,-5.4206,-5.4193,-5.4191,-5.4196,-5.4292,-5.4294,-5.4296,-5.4298,0,-5.3995,-5.3983,-5.402,-5.4056,-5.4087,-5.4113,-5.4134,-5.416,-5.413,-5.4163,-5.4211,-5.4236,-5.4287,-5.433,-5.4363,-5.4367,-5.4329,-5.4323,-5.4342,-5.4353,-5.436,-5.4357,-5.4101,-5.4318,-5.4316,-5.4314,-5.4313,-5.4312,-5.414,-5.4187,-5.42,-5.4244,-5.4257,-5.4279,-5.4321,-5.4316,-5.4355,-5.4394,-5.4373,-5.4429,-5.4443,-5.4483,-5.4493,-5.4536,-5.4503,-5.453,-5.4537,-5.4544,-5.4554,-5.4353,-5.4542,-5.4541,-5.4541,-5.454,-5.454,0,-5.4335,-5.4341,-5.4382,-5.4414,-5.4449,-5.4409,-5.4431,-5.4463,-5.4513,-5.4529,-5.4562,-5.4617,-5.4659,-5.4655,-5.4694,-5.4729,-5.4712,-5.474,-5.4737,-5.4739,-5.4581,-5.4562,-5.4753,-5.4753,-5.4753,-5.4753,-5.4753,-5.4753,-5.4441,-5.4517,-5.4507,-5.459,-5.4595,-5.4649,-5.4666,-5.4686,-5.4699,-5.4762,-5.4797,-5.4794,-5.4803,-5.4842,-5.4878,-5.4876,-5.4892,-5.4928,-5.4919,-5.4771,-5.475,-5.473,-5.4711,-5.4931,-5.4932,-5.5073,-5.5074,-5.5075]}]]